Location: Oroua River
(40.4333°S, 175.4333°E)
Time: 14:12:17
(UTC+00:00)

Cosmos 2098 Rocket - Pass Details

Date: 03 February 2023
Orbit: 365 x 1111 km, 82.9° (Epoch: 22 March)

Event Time Altitude Azimuth Distance (km) Brightness Sun altitude
Rises 13:22:17 0° 192° (SSW) 3,910 8.0 -31.9°
Reaches altitude 10° 13:25:08 10° 197° (SSW) 2,884 7.1 -31.7°
Enters shadow 13:30:32 46° 239° (WSW) 1,276 4.6 -31.5°
